IZ1UQG-2 Weather Reports


Display with metric or nautical units.
time (UTC)temp
F
wind
direction
speed
MPH
gust
MPH
rain 1hr
in
rain 24hr
in
rain mn
in
humidity
%
barometer
mb
20260503222603 61 217 4.0 5.0 0.00 0.00 0.00 61 1015.8
20260503222504 61 217 4.0 5.0 0.00 0.00 0.00 61 1015.8
20260503222407 61 218 4.0 5.0 0.00 0.00 0.00 60 1015.8
20260503222305 61 218 4.0 5.0 0.00 0.00 0.00 60 1015.9
20260503222203 61 219 3.0 5.0 0.00 0.00 0.00 61 1015.9
20260503222114 61 219 3.0 5.0 0.00 0.00 0.00 61 1015.8
20260503222004 61 220 3.0 5.0 0.00 0.00 0.00 61 1015.8
20260503221803 61 221 3.0 5.0 0.00 0.00 0.00 60 1015.8
20260503221704 61 223 3.0 5.0 0.00 0.00 0.00 61 1015.9
20260503221604 61 223 3.0 5.0 0.00 0.00 0.00 61 1015.8
20260503221504 61 224 3.0 4.0 0.00 0.00 0.00 61 1015.9
20260503221404 61 224 3.0 4.0 0.00 0.00 0.00 60 1015.9
20260503221303 61 224 3.0 4.0 0.00 0.00 0.00 61 1015.9
20260503221113 61 225 2.0 4.0 0.00 0.00 0.00 60 1015.9
20260503221004 61 224 2.0 4.0 0.00 0.00 0.00 61 1015.9
20260503220904 61 223 2.0 4.0 0.00 0.00 0.00 61 1015.7
20260503220804 61 222 2.0 4.0 0.00 0.00 0.00 61 1015.9
20260503220704 61 220 2.0 4.0 0.00 0.00 0.00 61 1015.9
20260503220604 61 220 2.0 4.0 0.00 0.00 0.00 60 1015.9
20260503220504 61 219 2.0 4.0 0.00 0.00 0.00 60 1015.9
20260503220403 61 219 2.0 4.0 0.00 0.00 0.00 60 1015.9
20260503220304 61 219 2.0 4.0 0.00 0.00 0.00 60 1015.9
20260503220203 62 222 1.0 4.0 0.00 0.00 0.00 60 1015.8
20260503220105 62 222 1.0 3.0 0.00 0.00 0.00 60 1015.8
20260503220006 62 225 1.0 3.0 0.00 0.00 0.00 60 1015.8
20260503215806 62 234 1.0 3.0 0.00 0.00 0.00 59 1015.8
20260503215704 62 243 0.0 3.0 0.00 0.00 0.00 60 1015.8
20260503215514 62 279 0.0 2.0 0.00 0.00 0.00 60 1015.7
20260503215403 62 283 0.0 2.0 0.00 0.00 0.00 60 1015.7
20260503215304 62 283 0.0 2.0 0.00 0.00 0.00 59 1015.6
20260503215204 62 283 0.0 1.0 0.00 0.00 0.00 59 1015.7
20260503215104 63 283 0.0 1.0 0.00 0.00 0.00 59 1015.7
20260503215003 63 283 0.0 1.0 0.00 0.00 0.00 59 1015.7
20260503214904 63 283 0.0 1.0 0.00 0.00 0.00 59 1015.7
20260503214804 63 283 0.0 1.0 0.00 0.00 0.00 59 1015.8
20260503214604 63 277 0.0 3.0 0.00 0.00 0.00 59 1015.7
20260503214513 63 277 1.0 3.0 0.00 0.00 0.00 59 1015.7
20260503214404 63 273 1.0 3.0 0.00 0.00 0.00 59 1015.6
20260503214304 63 268 1.0 3.0 0.00 0.00 0.00 58 1015.7
20260503214204 63 267 1.0 3.0 0.00 0.00 0.00 59 1015.7
20260503214103 63 267 1.0 3.0 0.00 0.00 0.00 59 1015.7
20260503213903 62 266 1.0 3.0 0.00 0.00 0.00 59 1015.6
20260503213804 62 264 1.0 3.0 0.00 0.00 0.00 59 1015.7
20260503213704 62 262 2.0 3.0 0.00 0.00 0.00 59 1015.6
20260503213603 62 261 2.0 3.0 0.00 0.00 0.00 60 1015.7
20260503213506 62 261 2.0 3.0 0.00 0.00 0.00 60 1015.7
20260503213304 62 265 1.0 3.0 0.00 0.00 0.00 60 1015.7
20260503213214 62 265 1.0 3.0 0.00 0.00 0.00 60 1015.7
20260503213004 62 267 1.0 3.0 0.00 0.00 0.00 61 1015.5
20260503212903 62 275 1.0 3.0 0.00 0.00 0.00 61 1015.7
20260503212804 62 301 1.0 3.0 0.00 0.00 0.00 61 1015.7
20260503212703 62 328 1.0 3.0 0.00 0.00 0.00 61 1015.6
20260503212505 62 338 1.0 3.0 0.00 0.00 0.00 61 1015.6
20260503212403 62 335 1.0 3.0 0.00 0.00 0.00 61 1015.7
20260503212305 62 333 2.0 3.0 0.00 0.00 0.00 61 1015.6
20260503212212 62 332 2.0 3.0 0.00 0.00 0.00 61 1015.6
20260503212103 62 331 2.0 3.0 0.00 0.00 0.00 61 1015.6
20260503212003 62 331 2.0 3.0 0.00 0.00 0.00 61 1015.6
20260503211903 62 330 2.0 3.0 0.00 0.00 0.00 61 1015.6
20260503211804 62 328 2.0 4.0 0.00 0.00 0.00 61 1015.6
20260503211704 62 324 2.0 4.0 0.00 0.00 0.00 61 1015.6
20260503211603 62 319 2.0 4.0 0.00 0.00 0.00 60 1015.6
20260503211403 62 288 3.0 7.0 0.00 0.00 0.00 59 1015.5
20260503211205 63 257 3.0 7.0 0.00 0.00 0.00 59 1015.4
20260503211103 63 248 3.0 7.0 0.00 0.00 0.00 59 1015.4
20260503211004 63 240 4.0 7.0 0.00 0.00 0.00 59 1015.3
20260503210913 63 233 4.0 7.0 0.00 0.00 0.00 59 1015.4
20260503210804 63 227 4.0 7.0 0.00 0.00 0.00 59 1015.4
20260503210704 62 223 4.0 7.0 0.00 0.00 0.00 59 1015.3
20260503210604 62 221 5.0 7.0 0.00 0.00 0.00 58 1015.3
20260503210503 62 219 5.0 8.0 0.00 0.00 0.00 58 1015.3
20260503210403 62 216 5.0 8.0 0.00 0.00 0.00 58 1015.4
20260503210303 62 215 5.0 9.0 0.00 0.00 0.00 59 1015.4
20260503210204 62 214 5.0 9.0 0.00 0.00 0.00 59 1015.3
20260503210005 62 212 5.0 9.0 0.00 0.00 0.00 58 1015.4
20260503205803 62 211 5.0 9.0 0.00 0.00 0.00 59 1015.4
20260503205704 62 212 5.0 9.0 0.00 0.00 0.00 59 1015.4
20260503205615 62 212 5.0 9.0 0.00 0.00 0.00 59 1015.3
20260503205404 62 210 5.0 9.0 0.00 0.00 0.00 58 1015.3
20260503205304 62 210 5.0 8.0 0.00 0.00 0.00 58 1015.3
20260503205103 62 210 5.0 8.0 0.00 0.00 0.00 58 1015.4
20260503205004 62 209 5.0 8.0 0.00 0.00 0.00 58 1015.4
20260503204904 62 209 5.0 8.0 0.00 0.00 0.00 58 1015.3
20260503204804 62 208 5.0 8.0 0.00 0.00 0.00 58 1015.3
20260503204704 62 208 5.0 8.0 0.00 0.00 0.00 58 1015.3
20260503204607 62 207 5.0 8.0 0.00 0.00 0.00 58 1015.3
20260503204505 62 207 4.0 8.0 0.00 0.00 0.00 58 1015.2
20260503204403 62 207 4.0 8.0 0.00 0.00 0.00 58 1015.3
20260503204315 62 208 4.0 8.0 0.00 0.00 0.00 58 1015.3
20260503204204 62 207 4.0 7.0 0.00 0.00 0.00 58 1015.2
20260503204103 62 206 4.0 7.0 0.00 0.00 0.00 58 1015.2
20260503204004 63 207 4.0 7.0 0.00 0.00 0.00 58 1015.2
20260503203904 63 207 4.0 7.0 0.00 0.00 0.00 58 1015.3
20260503203704 63 206 4.0 7.0 0.00 0.00 0.00 58 1015.2
20260503203605 63 206 5.0 7.0 0.00 0.00 0.00 58 1015.2
20260503203203 63 207 4.0 7.0 0.00 0.00 0.00 58 1015.2
20260503203103 63 207 4.0 7.0 0.00 0.00 0.00 57 1015.2
20260503203004 63 207 4.0 7.0 0.00 0.00 0.00 58 1015.3
20260503202903 63 209 4.0 7.0 0.00 0.00 0.00 58 1015.2
20260503202803 63 210 3.0 7.0 0.00 0.00 0.00 57 1015.3
20260503202703 63 210 3.0 7.0 0.00 0.00 0.00 57 1015.3
20260503202603 63 210 2.0 6.0 0.00 0.00 0.00 58 1015.3
20260503202504 63 213 2.0 6.0 0.00 0.00 0.00 58 1015.4
20260503202404 63 219 2.0 6.0 0.00 0.00 0.00 58 1015.2
20260503202204 63 218 2.0 5.0 0.00 0.00 0.00 58 1015.3
20260503202104 63 217 2.0 4.0 0.00 0.00 0.00 57 1015.3
20260503202014 63 218 2.0 4.0 0.00 0.00 0.00 58 1015.3
20260503201804 63 215 3.0 6.0 0.00 0.00 0.00 58 1015.3
20260503201713 63 213 3.0 6.0 0.00 0.00 0.00 58 1015.3
20260503201605 63 211 3.0 7.0 0.00 0.00 0.00 58 1015.3
20260503201506 63 208 3.0 7.0 0.00 0.00 0.00 57 1015.3
20260503201403 63 206 4.0 7.0 0.00 0.00 0.00 57 1015.3
20260503201203 63 205 4.0 7.0 0.00 0.00 0.00 57 1015.4
20260503201105 63 204 4.0 7.0 0.00 0.00 0.00 57 1015.4
20260503201004 63 203 4.0 7.0 0.00 0.00 0.00 57 1015.4
20260503200904 63 204 5.0 7.0 0.00 0.00 0.00 57 1015.3
20260503200708 63 206 5.0 7.0 0.00 0.00 0.00 57 1015.4
20260503200604 63 208 5.0 7.0 0.00 0.00 0.00 57 1015.2
20260503200504 63 208 5.0 7.0 0.00 0.00 0.00 57 1015.2
20260503200414 63 209 5.0 7.0 0.00 0.00 0.00 57 1015.4
20260503200304 63 211 5.0 7.0 0.00 0.00 0.00 57 1015.4
20260503200104 63 216 5.0 7.0 0.00 0.00 0.00 57 1015.3
20260503200004 63 218 4.0 6.0 0.00 0.00 0.00 57 1015.3
20260503195804 63 219 4.0 6.0 0.00 0.00 0.00 57 1015.3
20260503195705 63 220 4.0 6.0 0.00 0.00 0.00 57 1015.4
20260503195503 63 222 4.0 6.0 0.00 0.00 0.00 57 1015.3
20260503195404 63 223 4.0 6.0 0.00 0.00 0.00 56 1015.2
20260503195305 63 223 4.0 6.0 0.00 0.00 0.00 57 1015.3
20260503195203 63 224 4.0 6.0 0.00 0.00 0.00 56 1015.3
20260503195106 63 223 4.0 6.0 0.00 0.00 0.00 56 1015.2
20260503195005 64 222 4.0 6.0 0.00 0.00 0.00 56 1015.2
20260503194903 64 221 4.0 7.0 0.00 0.00 0.00 56 1015.1
20260503194814 64 221 4.0 7.0 0.00 0.00 0.00 57 1015.1
20260503194704 64 220 4.0 7.0 0.00 0.00 0.00 56 1015.2
20260503194604 64 219 5.0 7.0 0.00 0.00 0.00 56 1015.0
20260503194504 64 219 5.0 7.0 0.00 0.00 0.00 56 1015.1
20260503194403 64 218 5.0 7.0 0.00 0.00 0.00 56 1015.0
20260503194303 64 218 5.0 7.0 0.00 0.00 0.00 56 1015.1
20260503194203 64 216 5.0 7.0 0.00 0.00 0.00 56 1015.1
20260503194006 64 217 5.0 7.0 0.00 0.00 0.00 56 1015.1
20260503193904 64 216 5.0 7.0 0.00 0.00 0.00 56 1015.0
20260503193704 64 213 5.0 7.0 0.00 0.00 0.00 56 1015.0
20260503193604 64 212 5.0 7.0 0.00 0.00 0.00 56 1015.0
20260503193404 64 209 5.0 7.0 0.00 0.00 0.00 55 1015.0
20260503193304 64 207 5.0 7.0 0.00 0.00 0.00 56 1014.9
20260503193205 64 207 5.0 7.0 0.00 0.00 0.00 56 1014.9
20260503193104 64 206 5.0 7.0 0.00 0.00 0.00 56 1015.0
20260503193004 64 206 5.0 7.0 0.00 0.00 0.00 56 1014.9
20260503192903 64 205 5.0 7.0 0.00 0.00 0.00 56 1015.0
20260503192805 64 206 5.0 7.0 0.00 0.00 0.00 56 1015.0
20260503192704 64 207 5.0 7.0 0.00 0.00 0.00 56 1014.9
20260503192603 64 207 5.0 7.0 0.00 0.00 0.00 57 1014.9
20260503192506 64 208 5.0 7.0 0.00 0.00 0.00 57 1014.9
20260503192404 64 209 5.0 8.0 0.00 0.00 0.00 57 1015.0
20260503192305 64 210 5.0 8.0 0.00 0.00 0.00 57 1014.9
20260503192214 64 211 5.0 8.0 0.00 0.00 0.00 57 1014.9
20260503192104 64 212 5.0 8.0 0.00 0.00 0.00 57 1014.9
20260503192005 64 213 5.0 8.0 0.00 0.00 0.00 57 1014.9
20260503191904 64 216 5.0 8.0 0.00 0.00 0.00 57 1014.8
20260503191804 65 218 5.0 8.0 0.00 0.00 0.00 57 1014.8
20260503191605 65 223 5.0 8.0 0.00 0.00 0.00 57 1014.9
20260503191504 65 225 5.0 8.0 0.00 0.00 0.00 57 1014.8
20260503191404 65 227 5.0 8.0 0.00 0.00 0.00 57 1014.9
20260503191304 65 229 5.0 8.0 0.00 0.00 0.00 57 1014.8
20260503191208 65 230 5.0 8.0 0.00 0.00 0.00 57 1014.8
20260503191103 65 234 4.0 8.0 0.00 0.00 0.00 57 1014.8
20260503191004 65 236 4.0 8.0 0.00 0.00 0.00 56 1014.7
20260503190916 65 239 4.0 8.0 0.00 0.00 0.00 56 1014.8
20260503190805 65 240 3.0 8.0 0.00 0.00 0.00 56 1014.7
20260503190705 65 242 3.0 8.0 0.00 0.00 0.00 56 1014.7
20260503190604 65 244 2.0 7.0 0.00 0.00 0.00 56 1014.7
20260503190505 66 248 2.0 7.0 0.00 0.00 0.00 55 1014.6
20260503190404 66 254 2.0 5.0 0.00 0.00 0.00 55 1014.6
20260503190204 66 270 1.0 5.0 0.00 0.00 0.00 55 1014.6
20260503190104 66 275 1.0 4.0 0.00 0.00 0.00 55 1014.6
20260503190004 66 283 1.0 2.0 0.00 0.00 0.00 55 1014.5
20260503185907 66 282 1.0 2.0 0.00 0.00 0.00 55 1014.4
20260503185805 67 272 1.0 2.0 0.00 0.00 0.00 55 1014.5
20260503185704 67 262 1.0 2.0 0.00 0.00 0.00 55 1014.5
20260503185505 67 250 1.0 2.0 0.00 0.00 0.00 54 1014.5
20260503185404 67 246 1.0 2.0 0.00 0.00 0.00 54 1014.5
20260503185305 67 218 1.0 3.0 0.00 0.00 0.00 54 1014.5
20260503185204 67 205 1.0 3.0 0.00 0.00 0.00 53 1014.5
20260503185105 67 192 1.0 3.0 0.00 0.00 0.00 53 1014.5
20260503185004 67 182 1.0 3.0 0.00 0.00 0.00 52 1014.5
20260503184904 67 175 1.0 3.0 0.00 0.00 0.00 52 1014.4
20260503184806 67 166 1.0 3.0 0.00 0.00 0.00 51 1014.4
20260503184704 67 161 1.0 3.0 0.00 0.00 0.00 52 1014.3
20260503184604 67 165 1.0 4.0 0.00 0.00 0.00 52 1014.2
20260503184505 67 170 1.0 4.0 0.00 0.00 0.00 52 1014.3
20260503184404 67 175 2.0 4.0 0.00 0.00 0.00 52 1014.4
20260503184309 67 182 2.0 4.0 0.00 0.00 0.00 52 1014.2
20260503184014 67 192 3.0 6.0 0.00 0.00 0.00 52 1014.3
20260503183905 67 194 3.0 6.0 0.00 0.00 0.00 51 1014.3
20260503183804 67 197 3.0 6.0 0.00 0.00 0.00 52 1014.2
20260503183603 67 200 4.0 6.0 0.00 0.00 0.00 52 1014.3
20260503183504 67 201 4.0 6.0 0.00 0.00 0.00 53 1014.3
20260503183404 67 200 3.0 6.0 0.00 0.00 0.00 53 1014.3
20260503183305 67 201 4.0 6.0 0.00 0.00 0.00 53 1014.3
20260503183204 67 200 4.0 6.0 0.00 0.00 0.00 52 1014.2
20260503183104 67 198 3.0 5.0 0.00 0.00 0.00 52 1014.2
20260503183007 68 196 3.0 6.0 0.00 0.00 0.00 52 1014.2
20260503182804 68 193 4.0 6.0 0.00 0.00 0.00 52 1014.2
20260503182715 68 192 4.0 6.0 0.00 0.00 0.00 51 1014.3
20260503182604 68 190 4.0 6.0 0.00 0.00 0.00 51 1014.2
20260503182505 68 189 4.0 6.0 0.00 0.00 0.00 51 1014.4
20260503182404 68 189 4.0 6.0 0.00 0.00 0.00 51 1014.4
20260503182305 68 187 4.0 6.0 0.00 0.00 0.00 51 1014.3
20260503182203 68 186 4.0 6.0 0.00 0.00 0.00 51 1014.3
20260503182105 68 187 4.0 6.0 0.00 0.00 0.00 51 1014.3
20260503182006 68 188 4.0 6.0 0.00 0.00 0.00 51 1014.3
20260503181707 68 191 4.0 7.0 0.00 0.00 0.00 52 1014.3
20260503181605 68 192 4.0 7.0 0.00 0.00 0.00 52 1014.3
20260503181506 68 193 4.0 7.0 0.00 0.00 0.00 53 1014.3
20260503181415 68 195 4.0 7.0 0.00 0.00 0.00 53 1014.3
20260503181305 68 195 4.0 7.0 0.00 0.00 0.00 52 1014.2
20260503181205 68 196 4.0 7.0 0.00 0.00 0.00 51 1014.2
20260503181105 68 195 4.0 7.0 0.00 0.00 0.00 52 1014.2
20260503180905 69 193 3.0 7.0 0.00 0.00 0.00 51 1014.2
20260503180805 69 190 3.0 6.0 0.00 0.00 0.00 51 1014.3
20260503180704 69 188 3.0 6.0 0.00 0.00 0.00 50 1014.4
20260503180505 69 183 3.0 6.0 0.00 0.00 0.00 50 1014.2
20260503180407 69 181 3.0 6.0 0.00 0.00 0.00 50 1014.4
20260503180305 69 179 3.0 6.0 0.00 0.00 0.00 50 1014.3
20260503180115 69 177 3.0 5.0 0.00 0.00 0.00 50 1014.3
20260503180005 69 177 2.0 5.0 0.00 0.00 0.00 50 1014.2
20260503175805 69 177 2.0 4.0 0.00 0.00 0.00 50 1014.2
20260503175705 69 178 2.0 4.0 0.00 0.00 0.00 50 1014.3
20260503175605 69 179 1.0 4.0 0.00 0.00 0.00 50 1014.3
20260503175505 69 183 1.0 4.0 0.00 0.00 0.00 50 1014.2
20260503175404 69 186 1.0 3.0 0.00 0.00 0.00 50 1014.2
20260503175306 69 192 1.0 3.0 0.00 0.00 0.00 49 1014.2
20260503175205 70 197 1.0 3.0 0.00 0.00 0.00 49 1014.2
20260503175108 70 201 1.0 3.0 0.00 0.00 0.00 49 1014.1
20260503175005 70 205 1.0 3.0 0.00 0.00 0.00 49 1014.2
20260503174906 70 211 1.0 3.0 0.00 0.00 0.00 49 1014.1
20260503174605 70 193 1.0 3.0 0.00 0.00 0.00 49 1014.1
20260503174505 70 188 1.0 3.0 0.00 0.00 0.00 49 1014.1
20260503174405 70 183 1.0 3.0 0.00 0.00 0.00 48 1014.1
20260503174305 70 182 2.0 3.0 0.00 0.00 0.00 49 1014.1
20260503174105 70 181 2.0 3.0 0.00 0.00 0.00 49 1014.2
20260503174005 70 184 2.0 3.0 0.00 0.00 0.00 48 1014.1
20260503173905 70 184 2.0 4.0 0.00 0.00 0.00 48 1014.2
20260503173808 70 186 2.0 4.0 0.00 0.00 0.00 48 1014.1
20260503173704 70 190 2.0 4.0 0.00 0.00 0.00 48 1014.2
20260503173605 70 194 2.0 4.0 0.00 0.00 0.00 48 1014.1
20260503173406 70 205 2.0 5.0 0.00 0.00 0.00 47 1014.1
20260503173305 70 206 2.0 5.0 0.00 0.00 0.00 47 1014.1
20260503173206 70 204 2.0 5.0 0.00 0.00 0.00 47 1014.1
20260503173106 70 203 2.0 5.0 0.00 0.00 0.00 47 1014.1
20260503173006 70 201 2.0 5.0 0.00 0.00 0.00 48 1014.1
20260503172907 70 199 2.0 5.0 0.00 0.00 0.00 47 1014.2
20260503172805 70 196 2.0 5.0 0.00 0.00 0.00 47 1014.1
20260503172705 70 192 2.0 5.0 0.00 0.00 0.00 46 1014.1
20260503172605 70 188 2.0 5.0 0.00 0.00 0.00 46 1014.1
20260503172405 70 155 1.0 4.0 0.00 0.00 0.00 47 1014.1
20260503172106 71 66 0.0 2.0 0.00 0.00 0.00 47 1014.1
20260503172005 71 72 1.0 2.0 0.00 0.00 0.00 46 1014.0
20260503171905 71 80 1.0 2.0 0.00 0.00 0.00 46 1014.1
20260503171805 71 88 1.0 2.0 0.00 0.00 0.00 46 1014.1
20260503171706 71 94 1.0 2.0 0.00 0.00 0.00 45 1014.1
20260503171505 71 100 1.0 2.0 0.00 0.00 0.00 45 1014.1
20260503171406 71 105 1.0 2.0 0.00 0.00 0.00 44 1014.2
20260503171305 71 105 1.0 2.0 0.00 0.00 0.00 44 1014.1
20260503171106 71 111 1.0 2.0 0.00 0.00 0.00 44 1014.2
20260503171006 71 125 1.0 2.0 0.00 0.00 0.00 43 1014.2
20260503170805 71 148 0.0 2.0 0.00 0.00 0.00 43 1014.2
20260503170706 71 152 0.0 3.0 0.00 0.00 0.00 43 1014.2
20260503170506 71 129 1.0 3.0 0.00 0.00 0.00 42 1014.1
20260503170405 71 118 1.0 3.0 0.00 0.00 0.00 42 1014.2
20260503170205 71 107 1.0 4.0 0.00 0.00 0.00 43 1014.1
20260503170105 71 101 1.0 4.0 0.00 0.00 0.00 42 1014.2
20260503151005 71 91 6.0 10.0 0.00 0.00 0.00 44 1014.8
20260503150905 71 90 6.0 10.0 0.00 0.00 0.00 44 1014.7
20260503150804 71 88 6.0 10.0 0.00 0.00 0.00 44 1014.8
20260503150605 71 85 6.0 10.0 0.00 0.00 0.00 44 1014.8
20260503150405 71 83 6.0 10.0 0.00 0.00 0.00 44 1014.8
20260503150305 71 82 6.0 10.0 0.00 0.00 0.00 44 1014.8
20260503150205 71 81 6.0 10.0 0.00 0.00 0.00 44 1014.8
20260503140305 72 88 8.0 16.0 0.00 0.00 0.00 37 1015.2
20260503140205 72 86 8.0 16.0 0.00 0.00 0.00 37 1015.1
20260503131406 73 140 3.0 8.0 0.00 0.00 0.00 35 1015.6
20260503131305 73 140 3.0 8.0 0.00 0.00 0.00 35 1015.7
20260503131106 73 136 3.0 8.0 0.00 0.00 0.00 35 1015.7
20260503130908 73 121 3.0 8.0 0.00 0.00 0.00 36 1015.7
20260503130805 73 108 3.0 8.0 0.00 0.00 0.00 37 1015.6
20260503130705 73 97 3.0 8.0 0.00 0.00 0.00 36 1015.7
20260503130615 73 103 3.0 9.0 0.00 0.00 0.00 36 1015.7
20260503130506 73 104 3.0 10.0 0.00 0.00 0.00 36 1015.6
20260503130306 73 103 4.0 11.0 0.00 0.00 0.00 36 1015.7
20260503130206 73 102 4.0 11.0 0.00 0.00 0.00 37 1015.7
20260503130105 73 98 4.0 11.0 0.00 0.00 0.00 38 1015.8
20260503120205 72 84 6.0 10.0 0.00 0.00 0.00 42 1015.8
20260503110505 71 95 4.0 7.0 0.00 0.00 0.00 41 1016.2
20260503110305 71 96 4.0 7.0 0.00 0.00 0.00 42 1016.2
20260503110206 70 97 4.0 7.0 0.00 0.00 0.00 43 1016.3
20260503110106 70 97 3.0 7.0 0.00 0.00 0.00 44 1016.3
20260503100105 69 100 2.0 8.0 0.00 0.00 0.00 50 1016.6
20260503090505 67 92 2.0 5.0 0.00 0.00 0.00 55 1016.9
20260503090405 67 93 2.0 5.0 0.00 0.00 0.00 55 1017.0
20260503090305 66 92 3.0 5.0 0.00 0.00 0.00 54 1016.8
20260503090205 66 90 2.0 5.0 0.00 0.00 0.00 54 1016.9
20260503090105 67 87 2.0 5.0 0.00 0.00 0.00 55 1016.9
20260503081504 65 17 1.0 3.0 0.00 0.00 0.00 62 1017.4
20260503081405 65 25 1.0 3.0 0.00 0.00 0.00 62 1017.5
20260503081308 64 29 1.0 3.0 0.00 0.00 0.00 63 1017.6
20260503081104 64 34 1.0 3.0 0.00 0.00 0.00 63 1017.5
20260503081016 64 40 1.0 3.0 0.00 0.00 0.00 63 1017.5
20260503080905 64 47 2.0 4.0 0.00 0.00 0.00 62 1017.5
20260503080805 64 52 2.0 4.0 0.00 0.00 0.00 62 1017.5
20260503080704 64 58 2.0 4.0 0.00 0.00 0.00 63 1017.6
20260503080605 63 61 2.0 4.0 0.00 0.00 0.00 62 1017.6
20260503080404 64 60 2.0 4.0 0.00 0.00 0.00 60 1017.6
20260503080204 63 53 2.0 4.0 0.00 0.00 0.00 60 1017.6
20260503080104 63 52 2.0 4.0 0.00 0.00 0.00 60 1017.6
20260503072815 62 351 2.0 4.0 0.00 0.00 0.00 63 1017.8
20260503072704 62 351 2.0 4.0 0.00 0.00 0.00 63 1017.8
20260503072604 62 350 2.0 4.0 0.00 0.00 0.00 64 1017.8
20260503072504 62 349 2.0 4.0 0.00 0.00 0.00 64 1017.8
20260503072404 61 349 2.0 5.0 0.00 0.00 0.00 64 1017.8
20260503072306 61 352 2.0 5.0 0.00 0.00 0.00 65 1017.9
20260503072205 61 353 2.0 5.0 0.00 0.00 0.00 65 1017.8
20260503072105 61 350 2.0 5.0 0.00 0.00 0.00 65 1017.8
20260503071804 61 351 3.0 5.0 0.00 0.00 0.00 65 1017.8
20260503071704 61 349 3.0 5.0 0.00 0.00 0.00 65 1017.9
20260503071604 60 350 3.0 5.0 0.00 0.00 0.00 66 1017.9
20260503071507 60 352 2.0 5.0 0.00 0.00 0.00 66 1017.9
20260503071405 60 353 2.0 5.0 0.00 0.00 0.00 66 1018.0
20260503071305 60 350 2.0 5.0 0.00 0.00 0.00 66 1017.8
20260503071216 60 349 2.0 5.0 0.00 0.00 0.00 66 1017.9
20260503071104 60 350 2.0 6.0 0.00 0.00 0.00 66 1017.9
20260503071005 60 351 2.0 6.0 0.00 0.00 0.00 66 1018.0
20260503070905 60 353 2.0 6.0 0.00 0.00 0.00 66 1017.9
20260503070705 60 347 2.0 6.0 0.00 0.00 0.00 67 1018.0
20260503070506 60 339 3.0 6.0 0.00 0.00 0.00 67 1018.1
20260503070404 60 338 3.0 6.0 0.00 0.00 0.00 67 1018.0
20260503070304 60 339 3.0 6.0 0.00 0.00 0.00 67 1018.1
20260503070214 60 341 3.0 6.0 0.00 0.00 0.00 68 1018.1
20260503070104 60 343 3.0 6.0 0.00 0.00 0.00 68 1018.1
20260503060205 56 317 3.0 5.0 0.00 0.00 0.00 73 1018.2
20260503060105 56 319 3.0 5.0 0.00 0.00 0.00 74 1018.1
20260503055105 56 319 3.0 4.0 0.00 0.00 0.00 74 1018.1
20260503055005 56 320 2.0 4.0 0.00 0.00 0.00 74 1018.1
20260503054905 56 320 2.0 4.0 0.00 0.00 0.00 74 1018.1
20260503054804 56 322 2.0 4.0 0.00 0.00 0.00 74 1018.2
20260503054712 56 324 2.0 4.0 0.00 0.00 0.00 74 1018.1
20260503054605 56 328 2.0 4.0 0.00 0.00 0.00 74 1018.2
20260503054505 56 328 2.0 4.0 0.00 0.00 0.00 74 1018.1
20260503054405 56 329 2.0 3.0 0.00 0.00 0.00 74 1018.2
20260503054204 56 327 2.0 3.0 0.00 0.00 0.00 75 1018.1
20260503054104 56 324 2.0 3.0 0.00 0.00 0.00 75 1018.1
20260503054005 56 322 2.0 3.0 0.00 0.00 0.00 75 1018.1
20260503053905 56 319 2.0 3.0 0.00 0.00 0.00 75 1018.0
20260503053713 56 314 2.0 3.0 0.00 0.00 0.00 75 1018.0
20260503053505 56 316 2.0 4.0 0.00 0.00 0.00 75 1018.1
20260503053305 56 318 2.0 4.0 0.00 0.00 0.00 75 1018.1
20260503053205 56 319 2.0 4.0 0.00 0.00 0.00 75 1018.1
20260503053104 55 321 2.0 4.0 0.00 0.00 0.00 75 1018.1
20260503053005 55 324 2.0 4.0 0.00 0.00 0.00 76 1018.1
20260503052904 55 324 3.0 5.0 0.00 0.00 0.00 75 1018.2
20260503052804 55 325 3.0 5.0 0.00 0.00 0.00 75 1018.1
20260503052712 55 327 3.0 5.0 0.00 0.00 0.00 75 1018.1
20260503052605 55 329 3.0 5.0 0.00 0.00 0.00 75 1018.0
20260503052504 55 327 2.0 5.0 0.00 0.00 0.00 75 1018.1
20260503052404 55 327 2.0 5.0 0.00 0.00 0.00 75 1018.1
20260503052005 56 331 2.0 5.0 0.00 0.00 0.00 74 1018.1
20260503051804 56 330 1.0 4.0 0.00 0.00 0.00 74 1018.1
20260503051712 56 326 1.0 3.0 0.00 0.00 0.00 74 1018.1
20260503051605 56 323 1.0 3.0 0.00 0.00 0.00 74 1018.1
20260503051505 56 322 1.0 3.0 0.00 0.00 0.00 75 1018.0
20260503051404 56 319 1.0 3.0 0.00 0.00 0.00 75 1018.0
20260503051305 56 314 1.0 3.0 0.00 0.00 0.00 75 1018.1
20260503051205 56 310 1.0 3.0 0.00 0.00 0.00 75 1018.0
20260503051104 56 305 1.0 3.0 0.00 0.00 0.00 75 1018.1
20260503051005 55 304 1.0 3.0 0.00 0.00 0.00 75 1018.0
20260503050905 56 299 1.0 2.0 0.00 0.00 0.00 75 1018.0
20260503050804 56 299 1.0 2.0 0.00 0.00 0.00 75 1018.0
20260503050712 56 299 1.0 2.0 0.00 0.00 0.00 75 1018.1
20260503050605 55 299 0.0 2.0 0.00 0.00 0.00 75 1018.1
20260503050405 55 299 1.0 2.0 0.00 0.00 0.00 75 1018.1
20260503050304 55 299 1.0 2.0 0.00 0.00 0.00 75 1018.0
20260503050205 55 299 1.0 2.0 0.00 0.00 0.00 75 1018.1
20260503050105 55 300 1.0 2.0 0.00 0.00 0.00 75 1018.0
20260503045905 55 302 1.0 3.0 0.00 0.00 0.00 76 1018.0
20260503045804 55 303 1.0 4.0 0.00 0.00 0.00 76 1018.1
20260503045604 55 301 1.0 4.0 0.00 0.00 0.00 76 1018.2
20260503045505 55 299 1.0 4.0 0.00 0.00 0.00 76 1018.1
20260503045405 55 296 1.0 4.0 0.00 0.00 0.00 76 1018.2
20260503045305 55 293 1.0 4.0 0.00 0.00 0.00 76 1018.2
20260503045204 55 288 2.0 4.0 0.00 0.00 0.00 77 1018.1
20260503045104 55 284 2.0 4.0 0.00 0.00 0.00 76 1018.2
20260503045005 54 277 2.0 4.0 0.00 0.00 0.00 76 1018.1
20260503044905 54 271 2.0 4.0 0.00 0.00 0.00 76 1018.2
20260503044713 54 263 2.0 4.0 0.00 0.00 0.00 77 1018.2
20260503044605 54 264 2.0 4.0 0.00 0.00 0.00 77 1018.1
20260503044505 54 266 2.0 4.0 0.00 0.00 0.00 77 1018.2
20260503044405 54 267 2.0 4.0 0.00 0.00 0.00 77 1018.2
20260503044305 54 265 2.0 4.0 0.00 0.00 0.00 77 1018.2
20260503044104 54 270 2.0 4.0 0.00 0.00 0.00 77 1018.2
20260503044005 54 275 2.0 4.0 0.00 0.00 0.00 77 1018.2
20260503043904 54 280 2.0 4.0 0.00 0.00 0.00 77 1018.1
20260503043804 54 284 2.0 4.0 0.00 0.00 0.00 77 1018.1
20260503043712 54 287 1.0 4.0 0.00 0.00 0.00 77 1018.1
20260503043605 55 288 1.0 4.0 0.00 0.00 0.00 77 1018.2
20260503043505 55 288 1.0 2.0 0.00 0.00 0.00 76 1018.1
20260503043405 55 286 1.0 2.0 0.00 0.00 0.00 76 1018.0
20260503043304 55 289 1.0 2.0 0.00 0.00 0.00 76 1018.1
20260503043205 55 289 1.0 2.0 0.00 0.00 0.00 76 1018.0
20260503043105 55 287 1.0 2.0 0.00 0.00 0.00 76 1018.0
20260503043005 55 288 1.0 2.0 0.00 0.00 0.00 76 1018.0
20260503042905 55 291 1.0 3.0 0.00 0.00 0.00 76 1018.0
20260503042805 55 289 1.0 3.0 0.00 0.00 0.00 76 1018.1
20260503042711 55 289 1.0 3.0 0.00 0.00 0.00 76 1018.0
20260503042604 55 289 1.0 3.0 0.00 0.00 0.00 76 1018.0
20260503042505 55 292 1.0 3.0 0.00 0.00 0.00 76 1017.9
20260503042404 55 296 1.0 3.0 0.00 0.00 0.00 76 1017.9
20260503042205 55 302 1.0 3.0 0.00 0.00 0.00 76 1018.0
20260503042104 55 302 1.0 3.0 0.00 0.00 0.00 76 1018.0
20260503042005 55 302 1.0 3.0 0.00 0.00 0.00 76 1018.0
20260503041804 55 302 1.0 3.0 0.00 0.00 0.00 77 1018.0
20260503041713 55 301 1.0 3.0 0.00 0.00 0.00 77 1018.0
20260503041604 54 289 1.0 3.0 0.00 0.00 0.00 76 1018.0
20260503041505 54 274 1.0 3.0 0.00 0.00 0.00 77 1018.1
20260503041404 54 259 1.0 3.0 0.00 0.00 0.00 77 1018.0
20260503041304 54 251 1.0 3.0 0.00 0.00 0.00 77 1018.1
20260503041205 54 248 1.0 3.0 0.00 0.00 0.00 77 1018.0
20260503040904 54 244 2.0 4.0 0.00 0.00 0.00 77 1018.1
20260503040713 54 240 2.0 5.0 0.00 0.00 0.00 78 1018.1
20260503040605 54 242 2.0 5.0 0.00 0.00 0.00 78 1018.1
20260503040505 54 243 2.0 5.0 0.00 0.00 0.00 78 1018.1
20260503040404 54 243 2.0 5.0 0.00 0.00 0.00 78 1018.0
20260503040205 54 243 2.0 5.0 0.00 0.00 0.00 78 1018.2
20260503040104 54 239 2.0 5.0 0.00 0.00 0.00 78 1018.1
20260503040005 54 239 2.0 5.0 0.00 0.00 0.00 78 1018.2
20260503035904 54 241 2.0 5.0 0.00 0.00 0.00 78 1018.2
20260503035804 54 244 2.0 5.0 0.00 0.00 0.00 78 1018.2
20260503035713 54 246 2.0 4.0 0.00 0.00 0.00 78 1018.2
20260503035604 54 241 2.0 5.0 0.00 0.00 0.00 78 1018.3
20260503035505 54 240 3.0 5.0 0.00 0.00 0.00 77 1018.2
20260503035305 54 235 3.0 5.0 0.00 0.00 0.00 78 1018.2
20260503035204 54 235 3.0 5.0 0.00 0.00 0.00 78 1018.2
20260503035105 54 236 3.0 5.0 0.00 0.00 0.00 78 1018.2
20260503035005 54 236 3.0 5.0 0.00 0.00 0.00 78 1018.2
20260503034905 54 236 3.0 5.0 0.00 0.00 0.00 77 1018.1
20260503034804 54 234 2.0 5.0 0.00 0.00 0.00 77 1018.1
20260503034713 54 233 2.0 5.0 0.00 0.00 0.00 77 1018.1
20260503034505 54 234 2.0 5.0 0.00 0.00 0.00 77 1018.1
20260503034404 54 237 1.0 4.0 0.00 0.00 0.00 77 1018.2
20260503034305 54 239 1.0 3.0 0.00 0.00 0.00 77 1018.1
20260503034005 54 244 1.0 3.0 0.00 0.00 0.00 77 1018.2
20260503033904 54 243 1.0 3.0 0.00 0.00 0.00 77 1018.1
20260503033804 54 242 1.0 4.0 0.00 0.00 0.00 77 1018.1
20260503033713 54 243 2.0 4.0 0.00 0.00 0.00 77 1018.1
20260503033604 54 243 2.0 4.0 0.00 0.00 0.00 77 1018.2
20260503033505 54 242 2.0 4.0 0.00 0.00 0.00 77 1018.0
20260503033404 54 242 2.0 4.0 0.00 0.00 0.00 76 1018.1
20260503033305 54 242 2.0 4.0 0.00 0.00 0.00 76 1018.1
20260503033204 54 242 2.0 4.0 0.00 0.00 0.00 77 1018.1
20260503033105 54 241 2.0 4.0 0.00 0.00 0.00 77 1018.1
20260503033005 54 240 2.0 4.0 0.00 0.00 0.00 76 1018.1
20260503032904 54 241 2.0 4.0 0.00 0.00 0.00 76 1018.2
20260503032804 54 242 2.0 4.0 0.00 0.00 0.00 76 1018.2
20260503032713 54 242 2.0 4.0 0.00 0.00 0.00 76 1018.3
20260503032504 54 244 2.0 4.0 0.00 0.00 0.00 76 1018.3
20260503032404 54 246 2.0 4.0 0.00 0.00 0.00 76 1018.1
20260503032304 54 249 1.0 4.0 0.00 0.00 0.00 76 1018.2
20260503032204 54 250 2.0 4.0 0.00 0.00 0.00 76 1018.1
20260503032104 54 252 1.0 4.0 0.00 0.00 0.00 76 1018.2
20260503032005 55 254 1.0 3.0 0.00 0.00 0.00 76 1018.2
20260503031805 55 259 1.0 3.0 0.00 0.00 0.00 75 1018.2
20260503031714 55 266 1.0 3.0 0.00 0.00 0.00 75 1018.1
20260503031605 55 270 1.0 3.0 0.00 0.00 0.00 75 1018.2
20260503031505 55 279 1.0 2.0 0.00 0.00 0.00 75 1018.2
20260503031405 55 284 1.0 2.0 0.00 0.00 0.00 76 1018.2
20260503031105 55 276 1.0 3.0 0.00 0.00 0.00 75 1018.2
20260503031005 55 270 1.0 3.0 0.00 0.00 0.00 75 1018.3
20260503030904 55 270 1.0 3.0 0.00 0.00 0.00 75 1018.2
20260503030805 55 269 1.0 3.0 0.00 0.00 0.00 75 1018.2
20260503030714 55 265 1.0 3.0 0.00 0.00 0.00 76 1018.2
20260503030604 55 262 1.0 3.0 0.00 0.00 0.00 76 1018.2
20260503030506 55 256 1.0 3.0 0.00 0.00 0.00 76 1018.2
20260503030405 55 248 1.0 3.0 0.00 0.00 0.00 76 1018.2
20260503030306 55 247 1.0 4.0 0.00 0.00 0.00 75 1018.3
20260503030204 55 245 1.0 4.0 0.00 0.00 0.00 75 1018.2
20260503030105 55 239 1.0 4.0 0.00 0.00 0.00 76 1018.2
20260503025905 55 229 2.0 5.0 0.00 0.00 0.00 76 1018.2
20260503025804 55 230 2.0 6.0 0.00 0.00 0.00 75 1018.1
20260503025714 55 232 2.0 6.0 0.00 0.00 0.00 75 1018.2
20260503025605 55 234 2.0 6.0 0.00 0.00 0.00 75 1018.2
20260503025404 55 240 3.0 6.0 0.00 0.00 0.00 75 1018.2
20260503025305 55 243 3.0 6.0 0.00 0.00 0.00 75 1018.2
20260503025204 55 245 3.0 6.0 0.00 0.00 0.00 75 1018.2
20260503025006 55 254 2.0 6.0 0.00 0.00 0.00 75 1018.2
20260503024904 55 252 3.0 6.0 0.00 0.00 0.00 75 1018.2
20260503024805 55 249 3.0 6.0 0.00 0.00 0.00 76 1018.2
20260503024714 55 247 3.0 6.0 0.00 0.00 0.00 76 1018.2
20260503024605 55 244 3.0 6.0 0.00 0.00 0.00 76 1018.2
20260503024505 55 241 3.0 6.0 0.00 0.00 0.00 76 1018.2
20260503024404 55 239 3.0 6.0 0.00 0.00 0.00 76 1018.2
20260503024304 55 236 3.0 6.0 0.00 0.00 0.00 76 1018.2
20260503024204 55 234 3.0 6.0 0.00 0.00 0.00 76 1018.3
20260503024104 55 231 3.0 6.0 0.00 0.00 0.00 76 1018.1
20260503024006 55 233 3.0 6.0 0.00 0.00 0.00 76 1018.3
20260503023805 55 237 2.0 5.0 0.00 0.00 0.00 76 1018.3
20260503023715 55 240 2.0 5.0 0.00 0.00 0.00 76 1018.2
20260503023605 55 241 2.0 5.0 0.00 0.00 0.00 76 1018.2
20260503023504 55 239 2.0 5.0 0.00 0.00 0.00 76 1018.2
20260503023405 54 240 2.0 5.0 0.00 0.00 0.00 76 1018.3
20260503023304 54 238 2.0 5.0 0.00 0.00 0.00 76 1018.2
20260503023204 54 236 3.0 6.0 0.00 0.00 0.00 76 1018.3
20260503023006 54 231 3.0 6.0 0.00 0.00 0.00 76 1018.3
20260503022904 54 230 3.0 6.0 0.00 0.00 0.00 76 1018.3
20260503022804 54 229 3.0 6.0 0.00 0.00 0.00 76 1018.3
20260503022714 54 228 3.0 6.0 0.00 0.00 0.00 76 1018.3
20260503022604 54 227 3.0 6.0 0.00 0.00 0.00 76 1018.4
20260503022404 54 226 4.0 6.0 0.00 0.00 0.00 76 1018.3
20260503022305 54 225 4.0 6.0 0.00 0.00 0.00 76 1018.3
20260503022105 54 226 4.0 6.0 0.00 0.00 0.00 76 1018.2
20260503022005 55 227 4.0 6.0 0.00 0.00 0.00 76 1018.3
20260503021905 55 227 4.0 6.0 0.00 0.00 0.00 76 1018.3
20260503021804 55 227 4.0 6.0 0.00 0.00 0.00 76 1018.3
20260503021714 54 227 4.0 6.0 0.00 0.00 0.00 76 1018.4
20260503021505 54 227 4.0 6.0 0.00 0.00 0.00 76 1018.4
20260503021404 54 227 4.0 6.0 0.00 0.00 0.00 76 1018.3
20260503021305 54 228 4.0 6.0 0.00 0.00 0.00 76 1018.4
20260503021206 54 228 4.0 5.0 0.00 0.00 0.00 76 1018.3
20260503021105 54 228 3.0 5.0 0.00 0.00 0.00 76 1018.4
20260503021005 54 228 3.0 5.0 0.00 0.00 0.00 76 1018.4
20260503020904 55 228 3.0 5.0 0.00 0.00 0.00 76 1018.4
20260503020805 55 228 2.0 5.0 0.00 0.00 0.00 75 1018.3
20260503020713 55 228 2.0 4.0 0.00 0.00 0.00 75 1018.4
20260503020605 55 229 2.0 4.0 0.00 0.00 0.00 75 1018.4
20260503020505 55 229 2.0 4.0 0.00 0.00 0.00 75 1018.4
20260503020405 55 229 2.0 4.0 0.00 0.00 0.00 75 1018.4
20260503020305 55 229 2.0 4.0 0.00 0.00 0.00 75 1018.4
20260503020204 55 231 2.0 4.0 0.00 0.00 0.00 75 1018.4
20260503020104 55 232 2.0 4.0 0.00 0.00 0.00 75 1018.3
20260503020006 55 233 1.0 4.0 0.00 0.00 0.00 75 1018.3
20260503015804 55 232 2.0 4.0 0.00 0.00 0.00 75 1018.4
20260503015713 55 232 2.0 4.0 0.00 0.00 0.00 75 1018.4
20260503015605 55 231 2.0 4.0 0.00 0.00 0.00 76 1018.4
20260503015505 55 230 3.0 5.0 0.00 0.00 0.00 76 1018.3
20260503015405 55 229 3.0 5.0 0.00 0.00 0.00 76 1018.4
20260503015305 55 229 3.0 5.0 0.00 0.00 0.00 76 1018.4
20260503015105 54 229 3.0 5.0 0.00 0.00 0.00 76 1018.4
20260503015006 54 228 3.0 5.0 0.00 0.00 0.00 76 1018.4
20260503014905 54 228 3.0 5.0 0.00 0.00 0.00 76 1018.4
20260503014804 55 229 3.0 5.0 0.00 0.00 0.00 76 1018.4
20260503014714 55 229 3.0 5.0 0.00 0.00 0.00 75 1018.5
20260503014605 55 230 3.0 5.0 0.00 0.00 0.00 75 1018.4
20260503014505 55 232 2.0 5.0 0.00 0.00 0.00 75 1018.5
20260503014404 55 234 2.0 5.0 0.00 0.00 0.00 75 1018.4
20260503014105 55 242 2.0 4.0 0.00 0.00 0.00 75 1018.5
20260503014006 55 247 2.0 4.0 0.00 0.00 0.00 75 1018.4
20260503013905 55 248 2.0 4.0 0.00 0.00 0.00 74 1018.5
20260503013804 55 251 1.0 4.0 0.00 0.00 0.00 74 1018.4
20260503013713 55 255 1.0 4.0 0.00 0.00 0.00 74 1018.5
20260503013605 55 261 1.0 4.0 0.00 0.00 0.00 74 1018.4
20260503013505 56 270 1.0 4.0 0.00 0.00 0.00 74 1018.4
20260503013404 56 279 1.0 4.0 0.00 0.00 0.00 74 1018.5
20260503013305 56 289 1.0 2.0 0.00 0.00 0.00 74 1018.6
20260503013205 56 289 1.0 2.0 0.00 0.00 0.00 73 1018.5
20260503013105 56 289 1.0 2.0 0.00 0.00 0.00 73 1018.4
20260503013006 56 289 1.0 2.0 0.00 0.00 0.00 73 1018.5
20260503012805 56 289 1.0 2.0 0.00 0.00 0.00 73 1018.5
20260503012714 56 289 0.0 2.0 0.00 0.00 0.00 73 1018.5
20260503012504 56 289 0.0 2.0 0.00 0.00 0.00 73 1018.5
20260503012404 56 289 0.0 2.0 0.00 0.00 0.00 73 1018.5
20260503012305 56 290 0.0 2.0 0.00 0.00 0.00 72 1018.5
20260503012204 56 294 0.0 2.0 0.00 0.00 0.00 72 1018.5
20260503012105 56 297 0.0 2.0 0.00 0.00 0.00 72 1018.5
20260503012005 56 302 1.0 3.0 0.00 0.00 0.00 72 1018.5
20260503011905 57 309 1.0 3.0 0.00 0.00 0.00 72 1018.4
20260503011804 56 320 1.0 4.0 0.00 0.00 0.00 72 1018.5
20260503011604 57 321 1.0 4.0 0.00 0.00 0.00 71 1018.5
20260503011505 57 321 1.0 4.0 0.00 0.00 0.00 71 1018.5
20260503011405 57 322 1.0 4.0 0.00 0.00 0.00 71 1018.5
20260503011304 57 323 1.0 4.0 0.00 0.00 0.00 71 1018.5
20260503011205 57 318 1.0 4.0 0.00 0.00 0.00 71 1018.4
20260503011104 57 303 1.0 4.0 0.00 0.00 0.00 71 1018.5
20260503011005 57 292 1.0 4.0 0.00 0.00 0.00 71 1018.4
20260503010904 57 279 1.0 4.0 0.00 0.00 0.00 71 1018.5
20260503010804 57 259 1.0 3.0 0.00 0.00 0.00 72 1018.5
20260503010605 57 242 1.0 3.0 0.00 0.00 0.00 72 1018.5
20260503010505 57 242 1.0 3.0 0.00 0.00 0.00 72 1018.5
20260503010405 56 243 1.0 3.0 0.00 0.00 0.00 72 1018.5
20260503010304 56 246 1.0 3.0 0.00 0.00 0.00 72 1018.5
20260503010205 56 247 1.0 4.0 0.00 0.00 0.00 72 1018.6
20260503005905 56 258 1.0 4.0 0.00 0.00 0.00 72 1018.6
20260503005712 56 259 2.0 4.0 0.00 0.00 0.00 72 1018.6
20260503005605 56 260 2.0 4.0 0.00 0.00 0.00 72 1018.7
20260503005505 56 259 2.0 4.0 0.00 0.00 0.00 72 1018.5
20260503005405 56 258 2.0 4.0 0.00 0.00 0.00 72 1018.6
20260503005305 57 258 1.0 4.0 0.00 0.00 0.00 72 1018.7
20260503005204 57 258 1.0 3.0 0.00 0.00 0.00 72 1018.6
20260503005104 57 256 1.0 3.0 0.00 0.00 0.00 72 1018.5
20260503005005 57 250 1.0 3.0 0.00 0.00 0.00 72 1018.6
20260503004906 57 246 1.0 3.0 0.00 0.00 0.00 72 1018.7
20260503004605 57 227 1.0 3.0 0.00 0.00 0.00 71 1018.7
20260503004505 57 225 1.0 2.0 0.00 0.00 0.00 71 1018.8
20260503004405 57 225 1.0 2.0 0.00 0.00 0.00 71 1018.8
20260503004305 57 224 1.0 3.0 0.00 0.00 0.00 71 1018.7
20260503004206 57 223 1.0 4.0 0.00 0.00 0.00 71 1018.6
20260503004104 57 223 1.0 4.0 0.00 0.00 0.00 71 1018.8
20260503003905 57 222 2.0 4.0 0.00 0.00 0.00 72 1018.8
20260503003805 57 221 2.0 4.0 0.00 0.00 0.00 72 1018.7
20260503003712 57 221 2.0 4.0 0.00 0.00 0.00 72 1018.8
20260503003605 56 221 2.0 4.0 0.00 0.00 0.00 72 1018.7
20260503003505 56 221 2.0 4.0 0.00 0.00 0.00 72 1018.8
20260503003405 56 221 2.0 4.0 0.00 0.00 0.00 72 1018.8
20260503003304 56 221 2.0 4.0 0.00 0.00 0.00 72 1018.8
20260503003104 56 221 2.0 4.0 0.00 0.00 0.00 72 1018.9
20260503003005 56 221 2.0 4.0 0.00 0.00 0.00 72 1019.0
20260503002804 56 221 2.0 3.0 0.00 0.00 0.00 72 1018.9
20260503002711 56 221 1.0 3.0 0.00 0.00 0.00 72 1018.9
20260503002504 57 220 1.0 3.0 0.00 0.00 0.00 71 1018.9
20260503002405 57 220 1.0 3.0 0.00 0.00 0.00 71 1019.0
20260503002305 57 220 1.0 2.0 0.00 0.00 0.00 71 1019.0
20260503002205 57 220 1.0 3.0 0.00 0.00 0.00 71 1019.1
20260503002105 57 218 1.0 3.0 0.00 0.00 0.00 71 1019.0
20260503002005 57 218 1.0 3.0 0.00 0.00 0.00 71 1019.0
20260503001904 57 216 1.0 3.0 0.00 0.00 0.00 71 1019.0
20260503001804 57 213 1.0 3.0 0.00 0.00 0.00 71 1019.1
20260503001712 57 216 1.0 3.0 0.00 0.00 0.00 71 1019.0
20260503001605 57 219 1.0 4.0 0.00 0.00 0.00 71 1019.0
20260503001505 57 220 2.0 4.0 0.00 0.00 0.00 71 1019.0
20260503001404 57 221 2.0 4.0 0.00 0.00 0.00 70 1019.1
20260503001305 57 225 2.0 4.0 0.00 0.00 0.00 70 1019.0
20260503001205 57 232 2.0 4.0 0.00 0.00 0.00 70 1019.0
20260503001105 57 240 2.0 4.0 0.00 0.00 0.00 70 1019.1
20260503001004 57 241 2.0 4.0 0.00 0.00 0.00 70 1019.1
20260503000713 58 250 1.0 4.0 0.00 0.00 0.00 69 1019.1
20260503000604 58 253 1.0 3.0 0.00 0.00 0.00 69 1019.0
20260503000407 58 261 1.0 3.0 0.00 0.00 0.00 69 1019.0
20260503000305 58 261 1.0 3.0 0.00 0.00 0.00 69 1019.1
20260503000204 58 255 1.0 3.0 0.00 0.00 0.00 69 1019.1
20260502235904 58 258 1.0 3.0 0.00 0.00 0.00 69 1019.1
20260502235604 58 263 1.0 3.0 0.00 0.00 0.00 69 1019.1
20260502235505 58 263 1.0 4.0 0.00 0.00 0.00 69 1019.1
20260502235404 58 267 2.0 4.0 0.00 0.00 0.00 69 1019.0
20260502235305 58 270 1.0 4.0 0.00 0.00 0.00 69 1019.1
20260502235204 58 268 2.0 4.0 0.00 0.00 0.00 69 1019.1
20260502235104 58 261 2.0 4.0 0.00 0.00 0.00 69 1019.1
20260502235005 58 254 2.0 5.0 0.00 0.00 0.00 69 1019.1
20260502234905 58 247 2.0 5.0 0.00 0.00 0.00 69 1019.2
20260502234804 58 244 2.0 5.0 0.00 0.00 0.00 69 1019.1
20260502234711 58 241 3.0 5.0 0.00 0.00 0.00 69 1019.1
20260502234605 58 238 3.0 5.0 0.00 0.00 0.00 69 1019.1
20260502234404 58 234 3.0 5.0 0.00 0.00 0.00 69 1019.0
20260502234304 58 232 3.0 5.0 0.00 0.00 0.00 69 1019.1
20260502234005 58 233 3.0 5.0 0.00 0.00 0.00 69 1019.1
20260502233906 58 234 3.0 5.0 0.00 0.00 0.00 69 1019.2
20260502233804 58 234 3.0 4.0 0.00 0.00 0.00 68 1019.1
20260502233711 58 234 3.0 4.0 0.00 0.00 0.00 68 1019.2
20260502233605 58 232 3.0 5.0 0.00 0.00 0.00 69 1019.1
20260502233505 58 230 3.0 5.0 0.00 0.00 0.00 69 1019.2
20260502233405 58 228 3.0 5.0 0.00 0.00 0.00 68 1019.2
20260502233204 58 227 3.0 5.0 0.00 0.00 0.00 68 1019.2
20260502233004 58 223 3.0 5.0 0.00 0.00 0.00 68 1019.2
20260502232804 58 220 4.0 5.0 0.00 0.00 0.00 68 1019.2
20260502232711 58 220 4.0 5.0 0.00 0.00 0.00 68 1019.2
20260502232605 58 221 4.0 5.0 0.00 0.00 0.00 68 1019.3
20260502232504 58 221 4.0 5.0 0.00 0.00 0.00 68 1019.2
20260502232404 58 222 4.0 5.0 0.00 0.00 0.00 68 1019.3
20260502232305 58 222 4.0 5.0 0.00 0.00 0.00 68 1019.2
20260502232204 58 222 4.0 5.0 0.00 0.00 0.00 68 1019.2
20260502232105 58 223 4.0 5.0 0.00 0.00 0.00 68 1019.2
20260502232005 58 224 4.0 5.0 0.00 0.00 0.00 68 1019.3
20260502231804 58 225 4.0 5.0 0.00 0.00 0.00 68 1019.3
20260502231711 58 226 4.0 5.0 0.00 0.00 0.00 68 1019.3
20260502231604 58 228 4.0 5.0 0.00 0.00 0.00 68 1019.3
20260502231511 58 228 4.0 5.0 0.00 0.00 0.00 68 1019.2
20260502231405 58 228 4.0 5.0 0.00 0.00 0.00 69 1019.1
20260502231304 58 228 4.0 5.0 0.00 0.00 0.00 69 1019.2
20260502231204 58 229 4.0 5.0 0.00 0.00 0.00 69 1019.2
20260502231105 58 229 4.0 5.0 0.00 0.00 0.00 69 1019.1
20260502231004 58 228 3.0 5.0 0.00 0.00 0.00 69 1019.2
20260502230904 58 228 3.0 5.0 0.00 0.00 0.00 69 1019.2
20260502230804 58 229 3.0 5.0 0.00 0.00 0.00 69 1019.2
20260502230604 58 230 3.0 5.0 0.00 0.00 0.00 69 1019.3
20260502230504 58 231 3.0 5.0 0.00 0.00 0.00 69 1019.2
20260502230305 58 235 3.0 5.0 0.00 0.00 0.00 69 1019.1
20260502230205 58 239 3.0 5.0 0.00 0.00 0.00 69 1019.2
20260502230104 58 241 3.0 6.0 0.00 0.00 0.00 69 1019.2
20260502230005 58 243 3.0 6.0 0.00 0.00 0.00 69 1019.2
20260502225805 58 244 3.0 6.0 0.00 0.00 0.00 69 1019.2
20260502225605 58 240 3.0 6.0 0.00 0.00 0.00 68 1019.2
20260502225505 58 237 3.0 7.0 0.00 0.00 0.00 68 1019.2
20260502225405 58 235 4.0 7.0 0.00 0.00 0.00 68 1019.2
20260502225205 58 232 4.0 7.0 0.00 0.00 0.00 68 1019.2
20260502225005 58 232 4.0 7.0 0.00 0.00 0.00 68 1019.2
20260502224904 58 232 4.0 7.0 0.00 0.00 0.00 68 1019.1
20260502224804 58 233 4.0 7.0 0.00 0.00 0.00 68 1019.2
20260502224711 58 231 4.0 7.0 0.00 0.00 0.00 68 1019.1
20260502224604 58 229 4.0 7.0 0.00 0.00 0.00 68 1019.2
20260502224504 58 228 4.0 7.0 0.00 0.00 0.00 68 1019.2
20260502224404 58 228 4.0 7.0 0.00 0.00 0.00 68 1019.1
20260502224305 58 227 4.0 7.0 0.00 0.00 0.00 68 1019.1
20260502224104 58 227 4.0 8.0 0.00 0.00 0.00 68 1019.2
20260502224005 58 226 4.0 8.0 0.00 0.00 0.00 68 1019.1
20260502223905 58 225 4.0 8.0 0.00 0.00 0.00 68 1019.2
20260502223805 58 224 5.0 8.0 0.00 0.00 0.00 68 1019.1
20260502223711 58 225 4.0 8.0 0.00 0.00 0.00 68 1019.2
20260502223605 58 229 4.0 8.0 0.00 0.00 0.00 68 1019.3
20260502223505 58 232 4.0 10.0 0.00 0.00 0.00 68 1019.2
20260502223404 58 231 5.0 10.0 0.00 0.00 0.00 68 1019.2
20260502223304 58 231 5.0 10.0 0.00 0.00 0.00 68 1019.2
20260502223204 58 232 5.0 10.0 0.00 0.00 0.00 68 1019.1
20260502223105 58 231 5.0 10.0 0.00 0.00 0.00 68 1019.2
20260502223005 58 231 5.0 10.0 0.00 0.00 0.00 67 1019.2
20260502222905 58 232 5.0 10.0 0.00 0.00 0.00 67 1019.1
20260502222805 58 233 5.0 10.0 0.00 0.00 0.00 67 1019.1